Estherville, IA

12:41 AM CDT on May 30, 2017 (GMT -0500)
Estherville Municipal

Weather History for KEST - March, 2013

Change the Weather History Date:

Friday, March 15, 2013

  Actual Average Record
Temperature  
Mean Temperature 35 °F 32 °F  
Max Temperature 38 °F 41 °F 72 °F (2003)
Min Temperature 32 °F 24 °F -9 °F (2017)
Degree Days  
Heating Degree Days 30 33  
Month to date heating degree days 601 541  
Since 1 July heating degree days 6240 6456  
Cooling Degree Days 0 0  
Month to date cooling degree days 0 0  
Year to date cooling degree days 0 0  
Moisture  
Dew Point 33 °F    
Average Humidity 93    
Maximum Humidity 100    
Minimum Humidity 85    
Precipitation  
Precipitation T in 0.06 in 0.75 in (1953)
Month to date precipitation 1.04 0.52  
Sea Level Pressure  
Sea Level Pressure 29.87 in    
Wind  
Wind Speed 8 mph (NNE)    
Max Wind Speed 15 mph    
Max Gust Speed 18 mph    
Visibility 3 miles    
Events Rain    
T = Trace of Precipitation, MM = Missing Value Source: NWS Daily Summary

Daily Weather History Graph

Daily Weather History Graph

Search for Another Location

Airport or City:

Trip Planner

Search our weather history database for the weather conditions in past years. The results will help you decide how hot, cold, wet, or windy it might be!

Date:

Astronomy

Mar. 15, 2013 Rise Set
Actual Time 7:30 AM CDT 7:25 PM CDT
Civil Twilight 7:02 AM CDT 7:54 PM CDT
Nautical Twilight 6:29 AM CDT 8:27 PM CDT
Astronomical Twilight 5:55 AM CDT 9:01 PM CDT
Moon 9:13 AM CDT (3/15) 11:49 PM CDT (3/15)
Length of Visible Light 12h 51m
Length of Day
11h 55m
Waxing Crescent, 15% of the Moon is Illuminated
Mar 15
Waxing Crescent
Mar 19
First Quarter
Mar 27
Full
Apr 2
Last Quarter
Apr 10
New

Hourly Weather History & Observations

Time (CDT) Temp. Windchill Dew Point Humidity Pressure Visibility Wind Dir Wind Speed Gust Speed Precip Events Conditions
12:52 AM 34.0 °F 27.2 °F 33.1 °F 96% 30.01 in 4.0 mi SW 8.1 mph - N/A   Clear
1:52 AM 35.1 °F 29.3 °F 33.1 °F 92% 29.99 in 4.0 mi SSW 6.9 mph - N/A   Clear
2:52 AM 35.1 °F 31.0 °F 33.1 °F 92% 29.99 in 4.0 mi WSW 4.6 mph - N/A   Partly Cloudy
3:26 AM 33.8 °F 28.6 °F 32.0 °F 93% 29.96 in 2.5 mi North 5.8 mph - N/A   Mostly Cloudy
3:36 AM 35.6 °F 30.7 °F 33.8 °F 93% 29.96 in 3.0 mi NNW 5.8 mph - N/A   Overcast
3:52 AM 35.1 °F 30.1 °F 33.1 °F 92% 29.99 in 2.5 mi NNW 5.8 mph - N/A   Overcast
4:41 AM 35.6 °F 29.9 °F 33.8 °F 93% 29.96 in 3.0 mi WNW 6.9 mph - 0.00 in Rain Light Rain
4:52 AM 35.1 °F 28.6 °F 33.1 °F 92% 29.99 in 3.0 mi NW 8.1 mph - 0.00 in   Overcast
5:52 AM 34.0 °F 28.8 °F 32.0 °F 92% 29.96 in 7.0 mi NNE 5.8 mph - N/A   Mostly Cloudy
6:52 AM 33.1 °F 28.7 °F 30.9 °F 92% 29.92 in 6.0 mi ENE 4.6 mph - N/A   Overcast
7:52 AM 33.1 °F 26.9 °F 30.9 °F 92% 29.90 in 5.0 mi ENE 6.9 mph - N/A   Overcast
8:40 AM 33.8 °F 27.7 °F 30.2 °F 87% 29.85 in 2.5 mi NE 6.9 mph - N/A   Overcast
8:52 AM 33.1 °F 27.7 °F 30.9 °F 92% 29.90 in 2.5 mi NE 5.8 mph - N/A   Overcast
9:52 AM 33.1 °F 24.9 °F 30.9 °F 92% 29.90 in 3.0 mi NNE 10.4 mph - N/A   Partly Cloudy
10:52 AM 34.0 °F 28.0 °F 30.9 °F 89% 29.88 in 3.0 mi NE 6.9 mph - N/A   Clear
11:52 AM 36.0 °F 29.6 °F 32.0 °F 86% 29.88 in 4.0 mi NNE 8.1 mph - N/A   Clear
12:25 PM 37.4 °F 30.8 °F 33.8 °F 87% 29.84 in 4.0 mi NNE 9.2 mph - N/A   Partly Cloudy
12:52 PM 37.0 °F 29.8 °F 33.1 °F 86% 29.87 in 3.0 mi NNE 10.4 mph - N/A   Mostly Cloudy
1:52 PM 35.1 °F 26.4 °F 32.0 °F 89% 29.85 in 3.0 mi NNE 12.7 mph - N/A   Overcast
2:10 PM 35.6 °F 26.6 °F 33.8 °F 93% 29.81 in 2.5 mi NNE 13.8 mph - N/A   Overcast
2:27 PM 37.4 °F 28.9 °F 33.8 °F 87% 29.81 in 3.0 mi NNE 13.8 mph - N/A   Overcast
2:52 PM 37.9 °F 30.5 °F 34.0 °F 86% 29.83 in 3.0 mi NE 11.5 mph - N/A   Overcast
3:52 PM 37.0 °F 29.3 °F 33.1 °F 86% 29.83 in 3.0 mi NE 11.5 mph - N/A   Overcast
4:03 PM 37.4 °F 29.8 °F 33.8 °F 87% 29.79 in 2.5 mi NNE 11.5 mph - N/A   Overcast
4:52 PM 36.0 °F 28.0 °F 33.1 °F 89% 29.82 in 2.5 mi NE 11.5 mph - N/A   Overcast
5:33 PM 35.6 °F 28.0 °F 33.8 °F 93% 29.76 in 1.8 mi ENE 10.4 mph - N/A   Overcast
5:52 PM 35.1 °F 27.4 °F 33.1 °F 92% 29.79 in 1.5 mi ENE 10.4 mph - N/A   Overcast
5:57 PM 35.6 °F 27.5 °F 33.8 °F 93% 29.75 in 1.0 mi ENE 11.5 mph - N/A   Overcast
6:07 PM 35.6 °F 28.0 °F 33.8 °F 93% 29.75 in 0.8 mi ENE 10.4 mph - N/A   Overcast
6:52 PM 34.0 °F 28.0 °F 33.1 °F 96% 29.80 in 0.8 mi NE 6.9 mph - N/A   Overcast
7:05 PM 33.8 °F 27.0 °F 33.8 °F 100% 29.77 in 1.0 mi North 8.1 mph - N/A   Overcast
7:52 PM 34.0 °F 31.0 °F 32.0 °F 92% 29.82 in 1.2 mi North 3.5 mph - N/A   Overcast
8:52 PM 34.0 °F 29.8 °F 32.0 °F 92% 29.85 in 2.0 mi North 4.6 mph - N/A   Overcast
9:06 PM 33.8 °F 30.8 °F 32.0 °F 93% 29.81 in 1.8 mi North 3.5 mph - N/A   Overcast
9:52 PM 34.0 °F 26.6 °F 32.0 °F 92% 29.88 in 1.8 mi NNW 9.2 mph - N/A   Overcast
10:09 PM 33.8 °F 25.8 °F 32.0 °F 93% 29.84 in 0.8 mi NNW 10.4 mph - N/A   Overcast
10:52 PM 33.1 °F 24.9 °F 32.0 °F 96% 29.88 in 0.8 mi NNW 10.4 mph - N/A   Overcast
11:00 PM 33.8 °F 25.8 °F 32.0 °F 93% 29.83 in 1.2 mi NNW 10.4 mph - N/A   Overcast
11:36 PM 33.8 °F 26.4 °F 30.2 °F 87% 29.84 in 1.0 mi NNW 9.2 mph - N/A   Overcast
11:52 PM 33.1 °F 24.4 °F 30.9 °F 92% 29.88 in 1.5 mi NNW 11.5 mph - N/A   Overcast